SCP
0 0 0 0 0 0 0 0 0 -0 -0 -0 0 0 0 0 0 0 0 -0 -0 -0 -0 -0 -0 -0 -0 -0 -0 -0 0 0 0 0 0 0 -0 -0 -0 0 0 0 0
0 0 0 0 0 0 0 0 0 0 -0 0 0 0 0 0 0 0 0 -0 -0 -0 -0 -0 -0 -0 -0 -0 -0 -0 -0 0 0 0 0 0 -0 -0 -0 0 0 0 0
0 0 0 0 0 0 0 0 0 0 0 0 0 0 0 0 0 0 0 0 -0 -0 -0 -0 -0 -0 -0 -0 -0 -0 -0 -0 -0 0 0 0 -0 -0 -0 0 0 0 0
0 0 0 0 0 0 0 0 0 0 0 0 0 0 0 0 0 0 0 0 -0 -0 -0 -0 -0 -0 0 -0 -0 -0 -0 -0 -0 0 0 0 0 0 0 0 0 0 -0
0 0 0 0 0 0 0 0 0 0 0 0 0 0 0 0 0 0 0 0 0 0 -0 -0 -0 0 0 0 -0 -0 -0 -0 0 0 0 0 0 0 0 0 0 0 0
0 0 0 0 0 0 0 0 0 0 0 0 0 0 0 0 0 0 0 0 0 0 0 0 0 0 0 0 0 0 -0 -0 0 0 0 0 0 0 0 0 0 0 0
0 0 0 0 0 0 0 0 0 0 0 0 0 0 0 0 0 0 0 0 0 0 0 0 0 0 0 0 0 0 0 0 0 0 0 0 0 0 0 0 0 0 0
0 0 0 0 0 0 0 0 0 0 0 0 0 0 0 0 0 0 0 0 0 0 0 0 0 -0 0 0 0 0 0 0 0 0 0 0 0 0 0 0 0 0 0
0 0 0 0 0 0 0 0 0 0 0 0 0 0 0 0 0 0 0 0 0 -0 -0 -0 -0 -0 -0 -0 -0 0 0 0 0 0 0 0 0 0 0 0 0 0 0
0 0 0 0 0 0 0 0 0 0 0 0 0 0 0 0 -0 -0 -0 -0 -0 -0 -0 -0 -0 -0 -0 -0 -0 0 0 0 0 0 0 0 0 0 0 0 0 0 0
0 0 0 0 0 0 0 0 0 0 0 0 0 0 0 -0 -0 -0 -0 0 0 -0 -0 -0 -0 -0 -0 0 0 0 0 0 0 0 0 0 0 0 0 0 0 0 0
0 0 0 0 0 0 0 0 0 0 0 0 0 0 -0 -0 -0 -0 0 0 0 0 0 0 0 0 0 0 0 0 0 0 0 0 0 0 0 0 0 0 0 0 0
0 0 0 0 0 0 0 0 0 0 0 0 0 -0 -0 -0 -0 -0 0 0 0 0 0 0 0 0 0 -0 -0 0 0 0 0 0 0 0 0 0 0 0 0 0 0
0 0 0 0 0 0 0 0 0 0 0 0 -0 -0 -0 -0 -0 -0 0 0 0 0 0 0 0 0 0 0 -0 -0 -0 -0 0 0 0 0 0 0 0 0 0 0 0
1 1 0 0 0 0 0 0 0 0 0 0 -0 -0 -0 -0 -0 -0 0 0 0 0 0 0 0 0 0 0 0 -0 -0 -0 -0 0 0 0 0 0 0 0 0 0 0
1 1 1 1 1 0 0 0 0 0 0 0 0 -0 -0 -0 -0 0 0 0 0 0 0 0 0 0 0 0 0 -0 -0 -0 -0 0 0 0 0 0 0 0 0 0 0
1 1 1 1 1 1 0 0 0 0 0 0 0 0 0 0 0 0 0 0 0 0 0 0 0 0 0 0 0 -0 -0 -0 0 0 0 0 0 0 0 0 0 0 0
1 1 1 1 1 1 0 0 0 0 0 0 0 0 0 0 0 0 0 0 0 0 0 0 0 0 0 0 0 -0 -0 -0 0 0 0 0 0 0 0 0 0 0 0
1 1 1 1 1 1 1 0 0 0 0 0 0 0 0 0 0 0 0 0 0 0 0 0 0 0 0 0 0 -0 -0 -0 0 0 0 0 0 0 0 0 0 0 0
1 1 1 1 1 1 1 1 0 0 0 0 0 0 0 0 0 0 0 0 0 0 0 0 0 0 0 0 0 0 0 0 0 0 0 0 0 0 0 0 0 0 0
1 1 1 1 1 1 1 1 1 0 0 0 0 0 0 0 0 0 0 0 0 0 0 0 0 0 0 0 0 0 0 0 0 0 0 0 0 0 0 0 0 0 0
1 1 1 1 1 1 1 1 1 1 1 1 1 1 1 1 1 0 0 0 0 0 0 0 0 0 0 0 0 0 0 0 0 0 0 0 0 0 0 0 0 0 0
1 1 1 1 1 1 1 1 1 1 1 1 1 1 1 1 1 1 1 1 1 1 1 0 0 0 0 0 0 0 0 0 0 0 0 0 0 0 0 0 0 0 0
1 1 1 1 1 1 1 1 1 1 1 1 1 1 1 1 1 1 1 1 1 1 1 1 0 0 0 0 0 0 0 0 0 0 0 0 0 0 0 0 0 0 0
1 1 1 1 1 1 1 1 1 1 1 1 1 1 1 1 1 1 1 1 1 1 1 1 1 1 0 0 0 0 0 0 0 0 0 0 0 0 0 0 0 0 0
1 1 1 2 2 2 1 1 1 1 1 1 1 1 1 1 1 1 1 1 1 1 1 1 1 0 0 0 0 0 0 0 0 0 0 0 0 0 0 0 0 0 0
Wind_Speed
14 15 14 13 11 10 9 9 9 9 8 8 8 8 9 9 9 9 9 9 9 9 9 9 8 7 7 7 8 8 8 9 10 10 11 10 9 9 9 8 8 8 11
17 15 15 13 11 10 9 9 8 8 8 8 8 8 8 8 8 8 9 9 9 8 8 7 7 6 6 7 7 7 7 8 9 10 10 9 9 8 9 9 7 7 10
17 15 14 12 11 10 9 8 8 8 7 7 7 8 8 8 8 8 9 8 8 8 8 7 7 5 6 6 6 6 6 6 6 8 8 6 7 8 9 9 9 9 9
16 13 13 13 11 10 9 8 8 7 7 7 7 7 7 8 8 8 8 8 7 7 7 6 6 5 6 7 6 5 4 4 4 5 3 5 6 8 8 9 9 8 8
15 14 14 13 11 10 9 8 7 7 7 7 7 7 7 7 7 7 7 7 6 6 6 6 6 7 8 8 6 5 3 2 2 3 3 6 5 7 8 8 8 7 7
15 14 14 14 11 10 9 8 7 7 7 7 6 6 6 6 6 7 6 6 6 6 6 7 7 8 8 7 5 3 2 1 2 2 5 6 6 8 9 9 9 7 7
15 14 14 14 12 10 9 8 7 6 6 6 6 5 5 5 5 5 5 5 5 5 6 6 6 6 7 6 4 2 1 1 2 2 5 6 7 9 9 9 8 7 7
15 15 13 13 12 11 9 8 7 6 6 6 5 4 3 3 3 3 3 4 4 4 5 5 5 6 5 4 2 1 1 1 2 4 6 6 9 10 9 8 7 7 7
15 14 13 12 11 11 10 9 8 7 6 5 4 3 2 2 2 2 2 3 3 4 4 4 4 4 4 3 2 1 2 2 0 2 6 5 9 10 10 8 7 7 6
12 13 13 12 11 10 9 10 9 8 7 5 4 3 3 3 3 3 2 3 4 4 4 4 4 4 3 3 3 3 3 3 1 3 4 7 10 10 9 8 7 6 6
9 10 11 11 10 9 9 9 9 8 7 6 5 5 4 2 2 3 2 5 6 6 5 5 5 4 4 4 5 5 4 1 3 3 4 9 10 9 8 7 7 6 6
8 8 8 9 8 8 6 6 6 6 5 4 2 2 2 1 1 2 4 6 6 6 5 6 6 5 4 3 5 6 2 2 3 4 5 10 9 8 7 7 6 6 6
8 7 7 6 5 6 5 4 3 3 3 3 2 1 1 1 1 2 1 3 3 4 3 4 4 3 2 1 1 1 1 2 2 4 6 9 8 7 7 6 6 6 6
8 8 7 7 5 4 3 2 2 2 2 2 2 1 1 1 1 1 1 1 1 1 1 1 1 1 1 1 1 1 2 2 2 3 5 9 7 7 7 6 6 6 6
7 7 7 7 6 4 3 1 2 2 2 2 2 1 1 1 1 1 1 1 1 1 1 0 1 1 1 1 1 1 3 3 3 3 4 8 7 7 7 7 6 6 6
7 7 6 7 6 4 2 1 1 2 2 2 2 2 1 1 1 1 1 1 1 1 1 1 1 1 1 1 1 2 3 3 3 3 4 5 6 7 7 7 6 6 5
7 7 6 7 7 4 3 1 1 1 2 1 2 3 2 1 1 0 1 1 1 0 1 1 1 0 1 1 1 2 3 2 2 3 3 3 4 6 7 8 7 6 5
8 7 6 6 7 5 3 1 0 1 2 1 2 2 2 1 1 0 0 1 0 0 0 1 1 1 1 1 1 1 2 2 3 2 2 2 3 3 5 8 7 7 6
8 7 6 5 6 5 4 2 1 1 1 1 2 1 1 1 0 1 0 0 0 0 1 1 1 1 1 1 1 1 1 2 2 2 2 3 3 3 3 6 7 7 6
8 7 6 5 5 5 4 2 1 1 1 1 2 2 2 1 0 0 1 0 0 1 1 1 1 0 1 1 1 1 1 2 2 2 2 2 3 3 4 4 4 5 6
9 8 7 6 5 4 3 3 2 2 2 2 2 2 2 1 1 1 0 0 1 1 1 1 0 0 0 1 1 1 1 2 2 2 1 2 2 3 3 4 3 3 3
9 9 8 7 6 5 3 2 2 2 2 2 2 2 2 2 1 1 0 0 1 1 1 0 0 0 0 1 1 1 1 1 1 2 2 2 2 2 2 3 3 3 3
11 9 8 7 7 6 5 3 2 2 1 2 2 2 2 2 2 1 1 1 1 1 1 1 0 0 1 1 1 1 1 1 1 1 2 2 2 2 2 2 3 3 3
11 10 8 8 7 6 5 4 4 3 2 2 2 2 2 2 2 1 1 1 1 0 1 1 1 1 1 1 1 0 1 1 0 0 0 1 2 3 2 2 2 2 2
10 11 9 8 7 6 5 4 3 3 2 2 2 2 2 2 2 1 1 1 1 1 1 0 0 0 1 1 1 1 0 1 1 1 1 1 1 1 2 2 2 1 2
10 10 10 9 7 6 6 5 4 3 2 2 2 2 2 2 2 2 2 2 2 1 1 1 1 1 1 1 1 1 1 0 1 1 1 1 1 1 1 2 2 2 2
Wind_Direction
109 114 115 110 105 99 92 86 80 76 70 66 62 59 59 57 57 58 62 64 65 67 74 78 85 91 99 106 110 110 111 119 126 126 123 117 113 115 117 118 115 108 109
112 115 116 113 109 104 98 91 84 79 74 68 64 61 59 59 59 60 64 67 67 68 71 76 82 88 103 110 114 117 121 125 134 135 131 124 121 122 119 114 109 110 113
114 119 118 116 113 109 104 97 90 82 77 72 68 64 61 60 62 65 67 68 68 70 72 73 79 89 114 118 116 119 127 133 140 147 145 135 126 127 122 118 120 116 118
117 121 117 120 116 113 108 102 95 88 81 75 72 70 66 64 63 67 69 70 69 69 71 71 75 87 113 118 121 125 137 149 166 171 164 126 120 127 126 124 124 122 123
116 117 120 124 121 117 113 108 101 94 87 81 77 74 70 66 63 63 67 70 70 69 69 68 71 81 106 113 121 128 138 173 192 170 125 108 107 122 125 124 126 129 128
125 122 126 129 127 124 119 114 108 100 92 85 80 75 72 69 65 61 62 68 70 70 70 72 78 86 100 111 116 135 159 204 201 141 122 114 115 123 122 123 124 128 133
123 123 130 135 134 132 127 123 117 110 102 94 87 81 77 74 69 62 60 67 72 75 79 79 84 94 104 110 117 136 192 153 157 122 110 113 119 124 123 124 126 130 133
123 123 130 140 141 141 138 134 131 125 117 110 104 94 90 87 86 80 70 73 81 90 91 90 90 104 110 117 135 205 265 231 125 121 111 117 127 129 129 130 130 130 131
127 131 141 145 148 149 147 145 144 140 134 131 131 133 135 137 128 116 105 98 103 107 109 107 112 121 130 147 169 233 300 284 176 131 121 116 126 131 131 133 133 133 136
133 139 145 151 153 158 156 156 157 155 154 158 166 179 188 191 175 162 144 135 144 137 130 130 140 153 161 180 203 231 262 277 145 123 113 120 127 133 136 137 137 140 138
136 143 148 150 156 161 156 157 166 170 171 176 190 206 207 209 189 163 122 134 146 150 150 153 163 176 189 208 219 236 251 217 106 102 110 124 132 137 141 144 145 144 142
147 146 142 145 150 152 149 150 168 172 167 183 178 189 199 198 100 100 124 138 151 161 168 176 181 194 211 207 206 220 223 128 104 105 112 126 133 139 142 145 146 148 150
148 144 137 131 134 135 133 152 158 157 153 177 157 172 162 113 93 95 127 147 165 174 179 179 189 201 194 143 155 175 120 86 93 102 116 123 128 136 142 144 144 147 153
151 147 137 132 119 105 111 134 143 140 143 140 123 96 66 68 60 96 93 76 154 144 139 187 183 136 107 67 94 90 88 95 93 103 122 125 127 135 140 143 148 155 159
145 143 139 130 118 105 106 138 130 126 138 127 111 95 44 73 32 26 97 80 78 98 105 70 82 103 124 173 146 97 94 99 98 105 121 130 130 136 144 150 154 162 167
147 145 138 132 125 123 128 151 139 143 132 120 114 111 86 69 54 350 48 65 51 81 106 111 112 129 119 90 88 95 97 107 109 117 130 138 144 151 155 155 156 159 165
145 138 136 142 133 135 146 185 156 141 118 105 115 122 120 103 66 357 28 64 44 25 100 113 122 129 135 112 114 128 120 114 122 126 143 149 160 166 164 159 155 158 162
146 138 145 150 135 139 145 159 153 81 102 107 110 110 106 115 112 63 64 49 3 88 112 148 126 100 81 67 76 112 121 134 131 136 150 158 154 152 158 158 156 158 160
141 139 142 135 137 149 154 156 155 121 117 127 113 110 116 123 110 120 94 19 256 73 60 63 85 114 129 118 193 161 142 124 140 158 157 155 140 140 146 159 157 153 154
139 137 140 139 142 151 152 157 164 145 153 129 119 117 121 135 142 131 160 140 309 69 51 51 52 102 177 185 227 124 132 141 177 155 168 140 139 148 149 150 158 164 161
145 146 150 155 151 152 157 169 174 168 172 148 139 131 143 153 138 120 293 171 129 110 110 76 69 336 140 131 110 117 154 174 171 151 149 139 149 152 138 142 150 151 163
155 156 158 161 156 162 164 173 176 172 176 157 143 145 159 164 170 157 218 196 147 145 125 93 190 91 281 152 151 155 159 152 217 173 161 174 162 143 146 151 146 148 152
163 165 167 164 161 172 171 172 168 167 181 156 154 159 175 174 164 166 170 209 169 173 163 196 234 198 239 265 209 163 144 187 211 152 184 165 137 133 138 131 135 139 145
167 166 162 160 166 170 171 177 179 178 178 165 162 154 167 182 177 188 181 160 163 173 179 215 140 262 236 258 277 206 168 155 181 147 220 159 149 154 155 143 127 130 128
166 166 163 163 166 167 176 177 183 190 181 159 163 153 175 184 179 179 172 169 178 199 205 176 167 275 287 301 299 297 263 222 210 187 197 182 176 167 141 133 130 132 141
167 163 163 162 165 168 173 180 184 189 184 171 186 173 182 170 165 175 176 186 181 201 211 200 235 218 250 284 292 287 265 231 244 194 196 198 177 180 136 130 143 154 138